www.pogodaiklimat.ru

Погода и климат >> Архив погоды >> Мексика >> Piedras Negras


ПОГОДА в Piedras Negras

  • Прогноз погоды в Piedras Negras
  • Монитор погоды в Piedras Negras
  • Климат города

АРХИВ ПОГОДЫ в Piedras Negras

Время (UTC), дата Ветер
(напр.,м/с)
 
Видим.   Явления Облачность Т
(С)
Тd
(С)
f
(%)
Тe
(С)
Тes
(С)
Комфортность P
(гПа)
Po
(гПа)
Тmin
(С)
Tmax
(С)
R
(мм)
R24
(мм)
S
(см)
18 9.08 В 2 23 км 4/4 450 м
[Sc diur, vesp]
+34.0 +22.7 52 +44 +56 опасность
перегрева
1017.9 989.6 +25.0 +36.0
21 9.08 ЮВ 1 23 км 6/6 480 м
[Sc diur, vesp]
+36.4 +21.4 42 +44 +51 опасность
перегрева
1014.3 986.3
00 10.08 ЮВ 1 23 км 3/3 300 м
[Sc diur, vesp]
+36.8 +21.3 41 +44 +46 опасность
перегрева
1013.1 985.4 +25.0 +37.6
03 10.08 ЮВ 1 20 км 3/3 480 м
[Sc diur, vesp]
+31.2 +21.9 58 +40 +40 очень
душно
1014.3 986.7
06 10.08 ЮВ 1 20 км ясно +29.0 +22.5 68 +38 +38 очень
душно
1016.1 988.4 +25.0 +37.6
12 10.08 В 1 21 км ясно +26.0 +22.4 81 +34 +34 очень
душно
1016.4 988.3 +25.5 +37.6
15 10.08 Ю 1 23 км ясно +28.2 +23.3 75 +38 +48 очень
душно
1016.6 988.4
18 10.08 В 1 23 км ясно +34.6 +22.4 49 +44 +68 опасность
перегрева
1017.7 989.5 +25.5 +35.5
21 10.08 В 2 24 км 4/4 480 м
[Sc diur, vesp]
+38.0 +20.4 36 +44 +53 опасность
перегрева
1016.0 988.0
00 11.08 Ю 2 23 км 3/3 300 м
[Sc diur, vesp]
+37.0 +21.5 41 +45 +46 опасность
перегрева
1014.5 986.9 +25.5 +39.2
03 11.08 ЮВ 1 20 км ясно +31.8 +20.4 51 +39 +39 очень
душно
1016.8 989.2
06 11.08 ЮВ 1 20 км ясно +28.8 +21.6 65 +37 +37 очень
душно
990.5 +25.5 +39.2
12 11.08 ЮВ 1 21 км ясно +24.6 +21.8 84 +31 +31 очень
душно
1017.2 989.0 +23.6 +39.2
15 11.08 ЮВ 1 23 км ясно +28.0 +22.5 72 +37 +46 очень
душно
1018.4 990.1
18 11.08 Ю 1 24 км ясно +34.6 +21.5 47 +43 +66 опасность
перегрева
1017.5 989.2 +23.6 +35.2
21 11.08 ЮВ 2 24 км 4/4 480 м
[Sc diur, vesp]
+39.6 +19.4 31 +44 +53 опасность
перегрева
1015.8 987.7
00 12.08 ЮВ 1 24 км ясно +39.0 +18.2 30 +43 +45 опасность
перегрева
1012.5 984.9 +23.6 +41.2
03 12.08 ЮВ 2 20 км ясно +33.8 +18.2 40 +38 +38 очень
душно
1015.2 987.8
06 12.08 ЮВ 1 20 км ясно +30.8 +19.2 50 +36 +36 очень
душно
1015.2 987.8 +23.6 +41.2
12 12.08 ЮВ 2 22 км ясно +27.2 +20.5 67 +34 +34 очень
душно
1015.9 988.0 +26.6 +41.2
15 12.08 Ю 2 24 км ясно +28.8 +23.1 71 +39 +47 очень
душно
1014.5 986.4
18 12.08 Ю 3 24 км ясно +36.8 +21.9 42 +45 +62 опасность
перегрева
1014.4 986.4 +26.6 +37.4
21 12.08 ЮВ 1 24 км ясно +41.6 +19.2 28 +46 +63 опасность
перегрева
1010.8 983.0
00 13.08 ЮВ 1 24 км ясно +41.0 +17.3 25 +43 +45 опасность
перегрева
1008.5 981.2 +26.6 +42.8
12 13.08 ЮВ 1 21 км ясно +26.8 +21.3 72 +34 +34 очень
душно
1011.6 983.9 +26.4 +41.8
15 13.08 Ю 1 23 км ясно +29.0 +21.9 66 +37 +47 очень
душно
1012.7 984.7
18 13.08 ЮВ 1 24 км ясно +36.0 +21.3 43 +44 +67 опасность
перегрева
1011.8 983.9 +26.4 +36.8
21 13.08 ЮВ 1 24 км ясно +42.0 +16.4 23 +44 +61 опасность
перегрева
1009.0 981.3
00 14.08 ЮВ 2 24 км ясно +41.2 +15.2 22 +42 +44 опасность
перегрева
1006.9 979.7 +26.4 +43.4
03 14.08 Ю 1 20 км ясно +35.6 +15.8 31 +38 +38 очень
душно
1008.0 980.9
06 14.08 Ю 2 20 км ясно +31.0 +18.2 46 +35 +35 очень
душно
1008.1 981.0 +26.4 +43.4
12 14.08 ЮВ 2 22 км ясно +27.0 +21.5 72 +34 +34 очень
душно
1011.6 983.8 +26.6 +43.4
15 14.08 ЮВ 2 22 км 10/10 480 м
[Sc diur, vesp]
+28.0 +22.0 70 +36 +36 очень
душно
1011.9 983.9
18 14.08 В 2 22 км 3/3 480 м
[Sc diur, vesp]
+35.0 +22.3 48 +44 +58 опасность
перегрева
1012.2 984.2 +26.6 +36.4
21 14.08 В 1 24 км ясно +40.6 +19.3 29 +45 +62 опасность
перегрева
1007.3 979.6
00 15.08 ЮВ 1 24 км ясно +39.4 +17.7 28 +42 +44 опасность
перегрева
1005.0 977.7 +26.6 +41.6
12 15.08 Ю 1 22 км ясно +27.2 +21.7 72 +35 +35 очень
душно
1008.8 981.2 +26.6 +41.6
15 15.08 ЮВ 3 24 км 3/3 540 м
[Sc diur, vesp]
+28.6 +22.0 68 +37 +42 очень
душно
1011.6 983.7
18 15.08 ЮВ 3 24 км ясно +36.0 +21.0 42 +43 +60 опасность
перегрева
1011.6 983.7 +26.6 +37.0
21 15.08 В 2 24 км ясно +40.8 +20.0 30 +46 +60 опасность
перегрева
1007.3 979.7
00 16.08 ЮВ 1 23 км 5/5 200 м
[Frnb]
+38.6 +18.1 30 +42 +43 опасность
перегрева
1005.0 977.8 +26.6 +42.4
03 16.08 Ю 1 20 км 9/9 330 м
[St]
+35.2 +17.5 35 +39 +39 очень
душно
1007.2 980.1
06 16.08 В 1 20 км 8/8 360 м
[Sc diur, vesp]
+28.8 +21.7 66 +37 +37 очень
душно
1008.8 981.5 +26.6 +42.4
12 16.08 Ю 2 22 км 10/10 400 м
[Sc diur, vesp]
+28.8 +22.5 69 +38 +38 очень
душно
1011.7 983.9 +28.0 +42.4
15 16.08 Ю 2 22 км мгла {туман} 10/10 400 м
[Sc diur, vesp]
+29.2 +23.3 71 +40 +40 очень
душно
1013.2 985.2

 

Местоположение метеостанции Piedras Negras (Мексика): широта 28.70 долгота -100.50 высота над уровнем моря 250 м.

В архиве по умолчанию представлена погода в Piedras Negras за последнюю неделю. Архивные данные за месяц целиком и за предыдущие месяцы, начиная с января 2011 года, Вы можете получить, выбрав интересующий диапазон дат из раскрывающегося списка и нажав кнопку "Ввод!".

Внимание! Время в таблицах - всемирное. Для получения местного времени необходимо прибавить поправку, которая в Piedras Negras равна -7 ч.

Смотрите также архив погоды в соседних городах и на ближайших метеорологических станциях:

Погода в Monclova (Мексика) (221 км)
Погода в Monterrey (Мексика) (331 км)
Погода в Saltillo (Мексика) (374 км)
Погода в Torreon (Мексика) (455 км)
Погода в Chihuahua University (Мексика) (537 км)
Погода в Hidalgo del Parral (Мексика) (539 км)
Погода в Chihuahua (Мексика) (544 км)
Погода в Ciudad Victoria (Мексика) (569 км)
Погода в Soto La Marina (Мексика) (594 км)
Погода в Tepehuanes (Мексика) (638 км)

Пояснения к столбцам:

Ветер - указаны скорость ветра в м/с - средняя за 10 мин, порывы в срок и между сроками (в фигурных скобках) и направление, откуда дует ветер: С - северный, СВ - северо-восточный, В - восточный, ЮВ - юго-восточный, Ю - южный, ЮЗ - юго-западный, З - западный, СЗ - северо-западный.
Видимость - горизонтальная дальность видимости в метрах или километрах. При видимости от 1 до 10 км при отсутствии осадков обычно наблюдается дымка, при ухудшении видимости до 1 км и менее - туман. В сухую погоду видимость может ухудшаться дымом, пылью или мглою.
Явления - указаны атмосферные явления, наблюдавшиеся в срок или в последний час перед сроком; фигурными скобками обозначены явления, наблюдавшиеся между сроками (за 1-3 часа до срока); квадратными скобками обозначены град или гололедные отложения с указанием их диаметра в мм.
Облачность - указаны через наклонную черту общая и нижняя облачность в баллах и высота нижней границы облаков в метрах; квадратными скобками обозначены формы облаков: Ci - перистые, Cs - перисто-слоистые, Cc - перисто-кучевые, Ac - высококучевые, As - высокослоистые, Sc - слоисто-кучевые, Ns - слоисто-дождевые, Cu - кучевые, Cb - кучево-дождевые. Подробнее классификацию облаков см. в Атласе облаков (PDF).
T - Температура воздуха - температура, измеренная на высоте 2 м над землей.
Td - Температура точки росы - температура, при понижении до которой содержащийся в воздухе водяной пар достигнет насыщения.
f - Относительная влажность воздуха - влажноcть воздуха, измеренная на высоте 2 м над землей.
Te - Эффективная температура - температура, которую ощущает одетый по сезону человек в тени. Характеристика душности погоды. При расчете учитывается влияние влажности воздуха и скорости ветра на теплоощущения человека.
Tes - Эффективная температура на солнце - температура, которую ощущает человек, с поправкой на солнечный нагрев. Характеристика знойности погоды. Зависит от высоты солнца над горизонтом, облачности и скорости ветра. Ночью, в пасмурную погоду, а также при ветре 12 м/с и более поправка равна нулю.
P - Атмосферное давление - приведенное к уровню моря атмосферное давление.
Po - Атмосферное давление - измеренное на уровне метеостанции атмосферное давление.
Tmin - Минимальная температура - минимум температуры воздуха на высоте 2 м над землей.
Tmax - Максимальная температура - максимум температуры воздуха на высоте 2 м над землей.
R - Количество осадков - Количество выпавших осадков за период времени, мм. При наведении курсора мыши на число - период времени, за который выпало указанное количество осадков.
R24 - Количество осадков - Количество выпавших осадков за 24 часа, мм.
S - Снежный покров - Высота снежного покрова, см. При наведении курсора мыши на число - состояние снежного покрова и степень покрытия местности в баллах.